Location: Park Creek Village Mobile Home Park
(38.2885°N, 122.4714°W)
Time: 02:36:04
(UTC+00:00)

SJ-7 - Pass Details

Date: 14 December 2019
Orbit: 555 x 603 km, 97.7° (Epoch: 17 January)

Event Time Altitude Azimuth Distance (km) Brightness Sun altitude
Rises 14:12:42 0° 8° (N) 2,753 7.8 -12.6°
Reaches altitude 10° 14:14:52 10° 5° (N) 1,850 6.9 -12.2°
Maximum altitude 14:18:49 62° 285° (WNW) 627 4.3 -11.5°
Drops below altitude 10° 14:22:43 10° 204° (SSW) 1,831 7.0 -10.8°
Sets 14:24:51 0° 201° (SSW) 2,722 7.9 -10.4°
